Regional Weather Roundup
Issued by NWS

Home | Current Version | Previous Version | Graphics & Text | Print | Product List | Glossary On
Versions: 1 2 3 4 5 6 7 8 9 10 11 12 13 14 15 16 17 18 19 20 21 22 23 24 25 26 27 28 29 30 31 32 33 34 35 36 37 38 39 40 41 42 43 44 45 46 47 48 49 50
000
ASUS43 KMKX 202200
RWRWI

WISCONSIN REGIONAL WEATHER ROUNDUP
NATIONAL WEATHER SERVICE MILWAUKEE/SULLIVAN WI
500 PM CDT MON APR 20 2015

NOTE: "FAIR" INDICATES FEW OR NO CLOUDS BELOW 12,000 FEET WITH NO
SIGNIFICANT WEATHER AND/OR OBSTRUCTIONS TO VISIBILITY.

WIZ001-002-006>008-014>016-023>028-202300-
NORTHWEST WISCONSIN

CITY           SKY/WX    TMP DP  RH WIND       PRES   REMARKS
SUPERIOR ARPT  CLOUDY    38  28  66 NW21G31   29.40S WCI  28
ASHLAND        CLOUDY    40  29  64 W17G28    29.36R WCI  31
HAYWARD        CLOUDY    39  27  62 W10G26    29.39R WCI  32
SIREN          CLOUDY    39  26  60 W21G26    29.44S WCI  29
CUMBERLAND     CLOUDY    37  27  65 W20G26    29.43R WCI  27
RICE LAKE      CLOUDY    40  27  59 W14G22    29.44S WCI  32
CHETEK         CLOUDY    39  28  63 W9G22     29.43S WCI  33
LADYSMITH      CLOUDY    40  31  70 W17G24    29.41S WCI  31
EAU CLAIRE     NOT AVBL
MENOMONIE      CLOUDY    41  28  60 W16G23    29.47S
NEW RICHMOND   CLOUDY    40  26  59 NW24G32   29.48R WCI  29
OSCEOLA        CLOUDY    40  27  59 W20G31    29.52R WCI  30
$$

WIZ003>005-009-010-017-018-202300-
NORTH CENTRAL WISCONSIN

CITY           SKY/WX    TMP DP  RH WIND       PRES   REMARKS
MANITOWISH WTR CLOUDY    35  32  88 W14G21    29.31S WCI  26
ARBOR VITAE    CLOUDY    37  33  87 W13G21    29.32R WCI  28
WOODRUFF       CLOUDY    37  33  87 W13G21    29.32R WCI  28
RHINELANDER    LGT SNOW  36  33  89 W20G28    29.33R FOG     WCI  25
EAGLE RIVER    CLOUDY    35  31  87 W10       29.29S WCI  27
LAND O LAKES   CLOUDY    35  32  90 W9G22     29.30R WCI  27
PHILLIPS       CLOUDY    36  29  77 W9G17     29.35S WCI  29
TOMAHAWK       CLOUDY    36  32  86 W10G20    29.36R WCI  28
MEDFORD        CLOUDY    36  30  79 W20G29    29.39R WCI  25
MERRILL        CLOUDY    37  33  83 W14G24    29.36R WCI  29
$$

WIZ029-030-035-036-043>047-202300-
CENTRAL WISCONSIN

CITY           SKY/WX    TMP DP  RH WIND       PRES   REMARKS
WAUSAU         CLOUDY    39  31  72 W20G32    29.37R WCI  29
MOSINEE        NOT AVBL
MARSHFIELD     CLOUDY    39  30  70 W18G29    29.42R WCI  30
STEVENS POINT  CLOUDY    37  31  78 W18G25    29.41R WCI  27
WAUPACA        CLOUDY    43  35  74 W22       29.41R
WAUTOMA        CLOUDY    43  36  75 W13       29.44R
WISC RAPIDS    CLOUDY    41  30  65 NW15G29   29.44R
CAMP DOUGLAS   NOT AVBL
$$

WIZ011>013-019>022-031-037>040-048>050-202300-
NORTHEAST WISCONSIN

CITY           SKY/WX    TMP DP  RH WIND       PRES   REMARKS
ANTIGO         CLOUDY    39  35  85 W16G26    29.33R WCI  30
SHAWANO        CLOUDY    44  37  79 W14G23    29.35R
OCONTO         CLOUDY    41  38  91 W14G20    29.33R
STURGEON BAY   CLOUDY    39  34  81 W14G20    29.35R WCI  31
GREEN BAY      LGT RAIN  44  38  79 W18G26    29.37R
MANITOWOC      NOT AVBL
APPLETON       CLOUDY    43  36  75 W23G32    29.39R
CLINTONVILLE   CLOUDY    41  36  81 W16G26    29.36R
OSHKOSH        CLOUDY    42  34  73 W16G26    29.41R
$$

WIZ032>034-041-042-053>061-202300-
SOUTHWEST WISCONSIN

CITY           SKY/WX    TMP DP  RH WIND       PRES   REMARKS
LA CROSSE      CLOUDY    46  29  51 W17G26    29.51S
SPARTA         CLOUDY    41  29  63 W14G22    29.50R
VIROQUA        CLOUDY    40  31  71 W15       29.50R WCI  32
BOSCOBEL       CLOUDY    45  30  55 W14G22    29.54R
PRAIRIE DU CHI CLOUDY    45  30  56 W16G24    29.55R
PLATTEVILLE    CLOUDY    44  33  64 W21G31    29.55R
$$

WIZ056-057-062-063-064-067-068-202300-
SOUTH CENTRAL WISCONSIN

CITY           SKY/WX    TMP DP  RH WIND       PRES   REMARKS
REEDSBURG      CLOUDY    41  32  70 W15G25    29.48R
BARABOO/DELLS  CLOUDY    41  31  68 W12G23    29.47R
LONE ROCK      NOT AVBL
MINERAL POINT  CLOUDY    43  32  65 W24G33    29.52R
MADISON        CLOUDY    43  31  62 W10G26    29.49R
MIDDLETON      CLOUDY    44  32  63 W13G26    29.49R
WATERTOWN      CLOUDY    42  33  71 W20G29    29.47R
MONROE         CLOUDY    43  32  65 W25G35    29.51R
JANESVILLE     CLOUDY    46  32  57 W22G28    29.50R
$$

WIZ051-052-058>065-066-070>072-202300-
SOUTHEAST WISCONSIN

CITY           SKY/WX    TMP DP  RH WIND       PRES   REMARKS
MILWAUKEE      CLOUDY    46  33  60 W14G26    29.47R
WAUKESHA       CLOUDY    41  34  75 W23G29    29.47R
MILWAUKEE/TIMM CLOUDY    45  34  65 W23G30    29.46R
RACINE         CLOUDY    45  35  68 W16G28    29.49R
BURLINGTON     CLOUDY    41  34  75 W14G22    29.49R
KENOSHA        CLOUDY    44  35  70 W23G31    29.49R
FOND DU LAC    CLOUDY    42  34  73 W22G29    29.43R
SHEBOYGAN      LGT RAIN  44  38  79 W20G32    29.40R
WEST BEND      CLOUDY    41  34  75 W17G25    29.43R
JUNEAU         CLOUDY    41  34  75 W15G24    29.46R
$$

LSZ147-162-202300-
LAKE SUPERIOR

STATION/POSITION TIME  TEMP    WIND        PRES    WAVE
                       AIR SEA DIR/SP/G            HT/PER
                 (UTC) (F)     (DEG/KT/KT) (MB)    (FT/S)
DEVILS ISLAND    2100   36     270/ 23/ 27  993.2F
PORT WING        2124   38     260/ 14/ 25  994.9F
SAXON HARBOR     2100   41     290/ 13/ 22  993.6R
$$

LMZ867-665-643>646-202300-
LAKE MICHIGAN

STATION/POSITION TIME  TEMP    WIND        PRES    WAVE
                       AIR SEA DIR/SP/G            HT/PER
                 (UTC) (F)     (DEG/KT/KT) (MB)    (FT/S)
CHAMBERS ISLAND  2100   38     230/  3/ 11  992.2R
NORTHPORT PIER   2100   39     290/ 14/ 22  991.2R
SISTER BAY       2117   38     290/ 25/ 29   N/A
KEWAUNEE LAKESHO 2100   41     290/ 13/ 19  992.6R
SHEBOYGAN LAKESH 2100   44     280/ 17/ 21  995.0R
PORT WASHINGTON  2100   46     260/ 15/ 26  996.3
MILWAUKEE LAKESH 2100   45     260/ 20/ 25   N/A
KENOSHA   LAKESH 2100   45     260/ 17/ 33  998.3R
$$

TC  - TEMPERATURE IN CELSIUS
VSB - VISIBILITY IN STATUTE MILES
WCI - WIND CHILL INDEX
HX  - HEAT INDEX



USA.gov is the U.S. government's official web portal to all federal, state and local government web resources and services.